AKROTIRI current weather conditions

sailwx.info

Wind from 260 at 18 knots

Air temperature 24.0° C
Dewpoint 17.0° C

Last reported at 2015-May-26 09:50 UTC.
Time now 2015-May-26 11:38 UTC

Location: N 34°35' E 032°59'.
View on Google Maps.

See reports from other nearby stations

  
Tides and Currents Weather Stations Pressure Air Temp Water Temp Dewpoint Dewpoint Depression Visibility Wind Speed Wind Dir Waves Ship Positions
date/time (UTC)wind fromknots sea level pressurealtimeterstation pressurevisibilityair tempwater tempwave heightnotes
2015-May-26 09:50 260 18 24.0
2015-May-26 08:50 260 18 5.424.0
2015-May-26 07:50 250 15 24.0
2015-May-26 06:50 270 13 22.0
2015-May-26 05:50 220 6 22.0
2015-May-26 04:50 330 3 21.0
2015-May-26 03:50 310 2 18.0
2015-May-26 02:50 090 2 17.0
2015-May-26 01:50 300 5 18.0
2015-May-26 00:50 280 10 20.0
2015-May-25 23:50 260 15 20.0
2015-May-25 22:50 260 17 20.0
2015-May-25 21:50 260 15 20.0
2015-May-25 20:50 250 14 20.0
2015-May-25 19:50 260 17 20.0
2015-May-25 18:50 260 15 21.0
2015-May-25 17:50 250 16 21.0
2015-May-25 16:50 240 13 21.0
2015-May-25 15:50 240 12 23.0
2015-May-25 14:50 260 12 25.0
2015-May-25 13:50 270 13 27.0
2015-May-25 12:50 280 14 28.0
2015-May-25 11:50 270 11 27.0
2015-May-25 10:50 260 14 25.0
2015-May-25 09:50 270 13 25.0
2015-May-25 08:50 250 12 26.0
2015-May-25 07:50 260 10 26.0
2015-May-25 06:50 270 13 23.0
2015-May-25 05:50 270 9 23.0
2015-May-25 04:50 250 6 5.422.0
2015-May-25 03:50 090 2 19.0
2015-May-25 02:50 040 1 18.0
2015-May-25 01:50 260 4 19.0
2015-May-25 00:50 270 1 18.0
2015-May-24 23:50 280 2 19.0
2015-May-24 22:50 250 2 20.0
2015-May-24 21:50 300 1 21.0
2015-May-24 20:50 21.0
2015-May-24 19:50 220 3 22.0
2015-May-24 18:50 210 5 22.0
2015-May-24 17:50 200 5 23.0
2015-May-24 16:50 210 3 24.0
2015-May-24 15:50 220 5 25.0
2015-May-24 14:50 220 6 27.0
2015-May-24 13:50 260 9 27.0
2015-May-24 12:50 220 7 5.427.0
2015-May-24 11:50 220 9 5.427.0